Location: B?ogocice
(50.2413°N, 20.2361°E)
Time: 00:46:03
(UTC+00:00)

Cosmos 1943 - Pass Details

Date: 15 June 2024
Orbit: 834 x 847 km, 71.0° (Epoch: 18 July)

Event Time Altitude Azimuth Distance (km) Brightness Sun altitude
Rises 00:02:20 0° 331° (NNW) 3,396 7.0 -14.2°
Reaches altitude 10° 00:04:48 10° 334° (NNW) 2,457 6.3 -14.1°
Maximum altitude 00:10:25 69° 58° (ENE) 896 3.5 -13.7°
Drops below altitude 10° 00:16:00 10° 142° (SE) 2,441 5.3 -13.4°
Sets 00:18:26 0° 144° (SE) 3,372 6.0 -13.2°
